Location: Diebersbach
(48.5163°N, 8.0558°E)
Time: 22:05:45
(UTC+00:00)

USA 229 - Pass Details

Date: 30 October 2021
Orbit: 946 x 1266 km, 63.4° (Epoch: 25 November)

Event Time Altitude Azimuth Distance (km) Brightness Sun altitude
Rises 20:21:55 0° 288° (WNW) 3,764 7.4 -41.0°
Reaches altitude 10° 20:25:03 10° 302° (WNW) 2,862 6.6 -41.5°
Enters shadow 20:29:54 24° 348° (NNW) 2,094 5.5 -42.2°
